Location: Shenandoah County Park
(38.9356°N, 78.4524°W)
Time: 06:47:37
(UTC-05:00)

Envisat - Pass Details

Date: 07 October 2023
Orbit: 762 x 764 km, 98.3° (Epoch: 07 December)

Event Time Altitude Azimuth Distance (km) Brightness Sun altitude
Rises 06:18:11 0° 353° (N) 3,238 6.2 -11.9°
Reaches altitude 10° 06:21:26 10° 331° (NNW) 2,307 5.2 -11.3°
Maximum altitude 06:24:13 15° 298° (WNW) 1,975 4.6 -10.7°
Enters shadow 06:25:46 13° 277° (W) 2,079 4.6 -10.4°
